Météo par heure à Almamellék

Ce jour, 15 Mai, Samedi

Heure Température Précipitation Vent Pression Humidité
00:00 +11°C° 0 mm 1 m/s 743 mmHg 90%
01:00 +11°C° 0 mm 1 m/s 743 mmHg 91%
02:00 +10°C° 0 mm 1 m/s 743 mmHg 91%
03:00 +10°C° 0 mm 1 m/s 743 mmHg 92%
04:00 +9°C° 0 mm 0 m/s 743 mmHg 92%
05:00 +11°C° 0 mm 1 m/s 743 mmHg 89%
06:00 +12°C° 0 mm 1 m/s 743 mmHg 85%
07:00 +14°C° 0 mm 1 m/s 744 mmHg 82%
08:00 +15°C° 0.1 mm 1 m/s 744 mmHg 77%
09:00 +16°C° 0.1 mm 1 m/s 743 mmHg 72%
10:00 +18°C° 0.1 mm 1 m/s 743 mmHg 67%
11:00 +19°C° 0.3 mm 1 m/s 743 mmHg 63%
12:00 +20°C° 0.3 mm 1 m/s 743 mmHg 60%
13:00 +20°C° 0.3 mm 2 m/s 743 mmHg 56%
14:00 +19°C° 0.1 mm 2 m/s 742 mmHg 58%
15:00 +19°C° 0.1 mm 2 m/s 742 mmHg 59%
16:00 +19°C° 0.1 mm 2 m/s 742 mmHg 61%
17:00 +18°C° 0.2 mm 2 m/s 742 mmHg 67%
18:00 +16°C° 0.2 mm 2 m/s 741 mmHg 74%
19:00 +15°C° 0.2 mm 2 m/s 741 mmHg 80%
20:00 +14°C° 0 mm 2 m/s 741 mmHg 82%
21:00 +13°C° 0 mm 2 m/s 741 mmHg 85%
22:00 +13°C° 0 mm 2 m/s 741 mmHg 87%
23:00 +12°C° 0 mm 2 m/s 741 mmHg 88%

Demain, 16 Mai, Dimanche

Heure Température Précipitation Vent Pression Humidité
00:00 +12°C° 0 mm 2 m/s 741 mmHg 88%
01:00 +12°C° 0 mm 2 m/s 741 mmHg 88%
02:00 +11°C° 0 mm 3 m/s 741 mmHg 87%
03:00 +11°C° 0 mm 3 m/s 741 mmHg 86%
04:00 +10°C° 0 mm 3 m/s 741 mmHg 85%
05:00 +11°C° 0 mm 3 m/s 741 mmHg 83%
06:00 +12°C° 0 mm 3 m/s 741 mmHg 81%
07:00 +13°C° 0 mm 4 m/s 742 mmHg 79%
08:00 +13°C° 0.3 mm 3 m/s 742 mmHg 82%
09:00 +13°C° 0.3 mm 3 m/s 742 mmHg 84%
10:00 +13°C° 0.3 mm 3 m/s 743 mmHg 87%
11:00 +14°C° 0.1 mm 3 m/s 743 mmHg 80%
12:00 +16°C° 0.1 mm 3 m/s 743 mmHg 73%
13:00 +17°C° 0.1 mm 3 m/s 743 mmHg 67%
14:00 +18°C° 0 mm 2 m/s 742 mmHg 65%
15:00 +18°C° 0 mm 2 m/s 742 mmHg 64%
16:00 +19°C° 0 mm 1 m/s 742 mmHg 63%
17:00 +17°C° 0 mm 2 m/s 741 mmHg 69%
18:00 +16°C° 0 mm 2 m/s 741 mmHg 75%
19:00 +15°C° 0 mm 2 m/s 741 mmHg 82%
20:00 +14°C° 0 mm 2 m/s 741 mmHg 84%
21:00 +14°C° 0 mm 2 m/s 741 mmHg 87%
22:00 +13°C° 0 mm 2 m/s 741 mmHg 90%
23:00 +13°C° 0.3 mm 2 m/s 741 mmHg 92%

Après-demain, 17 Mai, Lundi

Heure Température Précipitation Vent Pression Humidité
00:00 +13°C° 0.3 mm 2 m/s 741 mmHg 94%
01:00 +13°C° 0.3 mm 2 m/s 741 mmHg 96%
02:00 +13°C° 0.9 mm 2 m/s 741 mmHg 97%
03:00 +13°C° 0.9 mm 2 m/s 740 mmHg 98%
04:00 +13°C° 0.9 mm 1 m/s 740 mmHg 98%
05:00 +13°C° 3.1 mm 2 m/s 741 mmHg 97%
06:00 +12°C° 3.1 mm 3 m/s 741 mmHg 96%
07:00 +11°C° 3.1 mm 3 m/s 741 mmHg 95%
08:00 +11°C° 1 mm 3 m/s 742 mmHg 93%
09:00 +11°C° 1 mm 3 m/s 742 mmHg 92%
10:00 +12°C° 1 mm 2 m/s 742 mmHg 90%
11:00 +14°C° 0 mm 2 m/s 742 mmHg 83%
12:00 +15°C° 0 mm 2 m/s 742 mmHg 76%
13:00 +18°C° 0 mm 1 m/s 742 mmHg 70%
14:00 +16°C° 0.4 mm 2 m/s 742 mmHg 75%
15:00 +14°C° 0.4 mm 3 m/s 743 mmHg 81%
16:00 +13°C° 0.4 mm 3 m/s 743 mmHg 87%
17:00 +13°C° 0.2 mm 3 m/s 743 mmHg 90%
18:00 +12°C° 0.2 mm 3 m/s 743 mmHg 92%
19:00 +13°C° 0.2 mm 2 m/s 744 mmHg 95%
20:00 +12°C° 0.3 mm 2 m/s 744 mmHg 94%
21:00 +12°C° 0.3 mm 2 m/s 744 mmHg 94%
22:00 +12°C° 0.3 mm 2 m/s 744 mmHg 94%
23:00 +12°C° 0.1 mm 2 m/s 744 mmHg 92%

18 Mai, Mardi

Heure Température Précipitation Vent Pression Humidité
00:00 +12°C° 0.1 mm 1 m/s 744 mmHg 91%
01:00 +11°C° 0.1 mm 1 m/s 744 mmHg 90%
02:00 +11°C° 0 mm 1 m/s 745 mmHg 90%
03:00 +10°C° 0 mm 1 m/s 745 mmHg 91%
04:00 +10°C° 0 mm 1 m/s 745 mmHg 92%
05:00 +11°C° 0 mm 1 m/s 745 mmHg 88%
06:00 +12°C° 0 mm 1 m/s 746 mmHg 85%
07:00 +13°C° 0 mm 1 m/s 746 mmHg 82%
08:00 +15°C° 0 mm 1 m/s 746 mmHg 74%
09:00 +16°C° 0 mm 1 m/s 746 mmHg 67%
10:00 +19°C° 0 mm 1 m/s 746 mmHg 60%
11:00 +18°C° 0.1 mm 2 m/s 746 mmHg 58%
12:00 +19°C° 0.1 mm 2 m/s 745 mmHg 56%
13:00 +19°C° 0.1 mm 3 m/s 745 mmHg 54%
14:00 +19°C° 0.1 mm 3 m/s 745 mmHg 56%
15:00 +19°C° 0.1 mm 4 m/s 744 mmHg 58%
16:00 +19°C° 0.1 mm 4 m/s 744 mmHg 61%
17:00 +17°C° 1.6 mm 4 m/s 744 mmHg 70%
18:00 +14°C° 1.6 mm 3 m/s 744 mmHg 80%
19:00 +12°C° 1.6 mm 3 m/s 744 mmHg 90%
20:00 +12°C° 4.3 mm 3 m/s 744 mmHg 92%
21:00 +11°C° 4.3 mm 4 m/s 744 mmHg 93%
22:00 +10°C° 4.3 mm 4 m/s 744 mmHg 95%
23:00 +9°C° 1.4 mm 5 m/s 744 mmHg 94%

19 Mai, Mercredi

Heure Température Précipitation Vent Pression Humidité
00:00 +9°C° 1.4 mm 5 m/s 744 mmHg 94%
01:00 +9°C° 1.4 mm 6 m/s 744 mmHg 93%
02:00 +8°C° 1.2 mm 6 m/s 744 mmHg 93%
03:00 +8°C° 1.2 mm 6 m/s 744 mmHg 92%
04:00 +8°C° 1.2 mm 6 m/s 745 mmHg 92%
05:00 +8°C° 0.3 mm 6 m/s 745 mmHg 90%
06:00 +8°C° 0.3 mm 7 m/s 746 mmHg 89%
07:00 +8°C° 0.3 mm 7 m/s 746 mmHg 87%
08:00 +9°C° 0.1 mm 7 m/s 746 mmHg 82%
09:00 +11°C° 0.1 mm 7 m/s 747 mmHg 76%
10:00 +12°C° 0.1 mm 8 m/s 747 mmHg 71%
11:00 +12°C° 0.1 mm 7 m/s 747 mmHg 69%
12:00 +14°C° 0.1 mm 7 m/s 747 mmHg 66%
13:00 +14°C° 0.1 mm 7 m/s 747 mmHg 64%
14:00 +15°C° 0.1 mm 6 m/s 747 mmHg 64%
15:00 +15°C° 0.1 mm 6 m/s 747 mmHg 64%
16:00 +15°C° 0.1 mm 5 m/s 747 mmHg 65%
17:00 +14°C° 0 mm 5 m/s 747 mmHg 67%
18:00 +13°C° 0 mm 5 m/s 747 mmHg 69%
19:00 +12°C° 0 mm 4 m/s 747 mmHg 70%
20:00 +11°C° 0 mm 4 m/s 748 mmHg 71%
21:00 +10°C° 0 mm 5 m/s 748 mmHg 72%
22:00 +9°C° 0 mm 5 m/s 749 mmHg 72%
23:00 +8°C° 0 mm 4 m/s 749 mmHg 75%

20 Mai, Jeudi

Heure Température Précipitation Vent Pression Humidité
00:00 +8°C° 0 mm 4 m/s 749 mmHg 77%
01:00 +8°C° 0 mm 3 m/s 749 mmHg 79%
02:00 +7°C° 0 mm 3 m/s 750 mmHg 81%
03:00 +7°C° 0 mm 3 m/s 750 mmHg 83%
04:00 +5°C° 0 mm 3 m/s 750 mmHg 85%
05:00 +8°C° 0 mm 3 m/s 751 mmHg 81%
06:00 +8°C° 0 mm 4 m/s 751 mmHg 76%
07:00 +10°C° 0 mm 5 m/s 752 mmHg 72%
08:00 +12°C° 0 mm 5 m/s 752 mmHg 68%
09:00 +13°C° 0 mm 6 m/s 752 mmHg 65%
10:00 +14°C° 0 mm 7 m/s 752 mmHg 61%
11:00 +15°C° 0.1 mm 7 m/s 752 mmHg 59%
12:00 +15°C° 0.1 mm 7 m/s 752 mmHg 58%
13:00 +16°C° 0.1 mm 7 m/s 752 mmHg 56%
14:00 +15°C° 0.1 mm 6 m/s 752 mmHg 58%
15:00 +15°C° 0.1 mm 5 m/s 752 mmHg 59%
16:00 +15°C° 0.1 mm 4 m/s 752 mmHg 60%
17:00 +14°C° 0 mm 3 m/s 752 mmHg 66%
18:00 +14°C° 0 mm 2 m/s 752 mmHg 71%
19:00 +12°C° 0 mm 1 m/s 752 mmHg 76%
20:00 +12°C° 0 mm 1 m/s 752 mmHg 77%
21:00 +11°C° 0 mm 1 m/s 753 mmHg 78%
22:00 +10°C° 0 mm 2 m/s 753 mmHg 80%
23:00 +9°C° 0 mm 2 m/s 753 mmHg 79%
Voir plus

Nous avons besoin de votre consentement

Meteoprog et ses fournisseurs de services peuvent stocker et accéder à des données personnelles telles que des cookies, des identifiants d'appareils ou d'autres technologies similaires sur votre appareil et traiter ces données pour personnaliser le contenu et les publicités, ainsi que pour fournir des fonctionnalités de médias sociaux et analyser le trafic.

  • Stocker et/ou accéder à des informations sur votre appareil

    Des cookies, des identifiants d'appareils ou d'autres informations peuvent être stockés ou accessibles sur votre appareil aux fins indiquées ci-dessus.

  • Annonces et contenus personnalisés, mesure des annonces et des contenus, connaissance de l'audience et développement de produits

    Les annonces et le contenu peuvent être personnalisés en fonction d'un profil. D'autres données peuvent être ajoutées pour mieux personnaliser les annonces et le contenu. Les performances des publicités et du contenu peuvent être mesurées. Il est possible d'obtenir des informations sur le public qui a vu les publicités et le contenu. Ces données peuvent être utilisées pour développer ou améliorer l'expérience de l'utilisateur, les systèmes et les logiciels.

En cliquant sur "J'accepte", vous autorisez l'utilisation de cookies, des identifiants d'appareils, des balises web ou d'autres technologies similaires. Vos paramètres peuvent être modifiés dans le navigateur de votre appareil.

Dans certains cas, des intérêts légitimes peuvent être invoqués plutôt qu'un consentement. Vous pouvez en savoir plus à ce sujet dans notre Politique de confidentialité et de cookies.